{"data":{"norad_id":63061,"epoch":"2026-09-21T17:54:58.235040Z","epoch_age_seconds":57707,"freshness":"FRESH","line1":"1 63061U 25035K   26264.74650735  .00140440  00000+0  10765-2 0  9991","line2":"2 63061  43.0011 273.7404 0001391 274.7600  85.3109 15.70908414 92055","mean_motion":15.70908414,"eccentricity":0.0001391,"inclination_deg":43.0011,"raan_deg":273.7404,"arg_perigee_deg":274.76,"mean_anomaly_deg":85.3109,"bstar":0.0010765,"rev_number":9205,"period_min":91.666706166105,"perigee_km":355.36276852814,"apogee_km":357.23628877041,"semimajor_km":6734.4365286493,"source":"CELESTRAK","updated_at":"2026-09-22T09:00:49.752041Z"}}